Location: Ottawa
(45.4170°N, 75.7000°W)
Time: 09:23:23
(UTC-04:00)

Amateur Radio Satellites - All Passes

Search period start: 01 July 2016 08:53
Search period end: 02 July 2016 08:53
Location: Ottawa, 45.4170°N, 75.7000°W

Satellite Date Start Highest point End Downlink Frequencies (MHz)
Time Altitude Azimuth
NOAA 18 01 Jul 08:53:57 08:58:21 24° 299° (WNW) 09:02:42 137.9125
AAUSAT CUBESAT 2 01 Jul 08:57:03 09:00:20 22° 93° (E) 09:03:34 437.432
UNISAT 6 01 Jul 08:58:21 08:59:38 11° 57° (ENE) 09:00:54 437.425
DOVE 4 01 Jul 09:05:47 09:09:44 34° 290° (WNW) 09:13:51 437.250
CUTE-I 01 Jul 09:09:46 09:13:21 18° 302° (WNW) 09:16:55 437.470
ISS 01 Jul 09:09:48 09:13:04 73° 334° (NNW) 09:16:20 145.825
PCSat 01 Jul 09:14:17 09:18:14 20° 37° (NE) 09:22:10 145.827
CUBEBUG 2 01 Jul 09:16:49 09:21:02 33° 96° (E) 09:25:18 437.445
PHONESAT 2.4 01 Jul 09:17:08 09:19:48 27° 190° (S) 09:22:28 2401.200-2431.200
DANDE 01 Jul 09:20:06 09:27:58 44° 288° (WNW) 09:34:56 436.750
ZACube-1 01 Jul 09:30:36 09:34:09 22° 93° (E) 09:37:43 437.345
COMPASS 1 01 Jul 09:33:30 09:37:42 69° 101° (ESE) 09:41:50 437.405
Oscar 11 01 Jul 09:34:43 09:38:15 24° 94° (E) 09:41:45 145.826/435.025
ANTELSAT 01 Jul 09:35:22 09:38:54 25° 65° (ENE) 09:42:31 437.575/2403.000
CINEMA 3 01 Jul 09:39:29 09:43:55 50° 288° (WNW) 09:48:32 145.822/145.860
CANX-2 01 Jul 09:43:33 09:47:38 43° 289° (WNW) 09:51:40 2200.000
FUNcube-1 01 Jul 09:46:11 09:50:11 29° 95° (E) 09:54:10 145.935
AUBIESAT-1 01 Jul 09:52:33 09:56:01 27° 102° (ESE) 09:59:40 437.475
UWE-3 01 Jul 09:57:42 10:02:17 60° 101° (E) 10:06:53 435.000/436.395/437.385
BEESAT 3 01 Jul 09:58:14 10:01:45 29° 45° (NE) 10:05:15 437.485
SEEDS 01 Jul 10:01:27 10:05:29 43° 289° (WNW) 10:09:28 437.485
RS-15 01 Jul 10:02:04 10:09:40 21° 97° (E) 10:17:28 29.354- 29.394
CUTE 1.7 + AOD 2 01 Jul 10:03:11 10:06:59 31° 292° (WNW) 10:10:44 437.475
QB50P1 01 Jul 10:13:14 10:14:30 11° 59° (ENE) 10:15:46 145.935-145.965
POPSAT HIP 1 01 Jul 10:16:25 10:17:59 12° 59° (ENE) 10:19:34 437.405
HUMSAT D 01 Jul 10:18:13 10:20:53 16° 90° (E) 10:23:31 437.325/437.525
DELFI C3 01 Jul 10:18:40 10:22:13 30° 96° (E) 10:25:44 145.870
HO-68 01 Jul 10:21:28 10:28:17 47° 296° (WNW) 10:35:04 435.675
TIGRISAT 01 Jul 10:25:06 10:29:25 73° 74° (ENE) 10:33:51 435.000
DUCHIFAT 1 01 Jul 10:26:35 10:28:42 14° 61° (ENE) 10:30:49 145.980
JAS-2 01 Jul 10:26:38 10:27:52 11° 49° (NE) 10:29:06 435.910
QB50P2 01 Jul 10:28:14 10:30:56 17° 63° (ENE) 10:33:39 145.880/145.840
POLYITAN 1 01 Jul 10:30:49 10:33:34 17° 63° (ENE) 10:36:18 437.675
UNISAT 6 01 Jul 10:31:15 10:35:36 89° 73° (ENE) 10:40:04 437.425
AAUSAT CUBESAT 2 01 Jul 10:32:06 10:35:54 35° 290° (WNW) 10:39:40 437.432
M-CUBED/EXP-1 PRIME 01 Jul 10:34:10 10:38:07 88° 290° (WNW) 10:42:23 437.505
BEESAT 2 01 Jul 10:41:57 10:45:48 43° 49° (NE) 10:49:36 435.950
ISS 01 Jul 10:46:59 10:49:53 28° 353° (N) 10:52:46 145.825
YUBILEINY 01 Jul 10:51:47 10:54:16 11° 70° (ENE) 10:56:45 435.215
CUBEBUG 2 01 Jul 10:53:34 10:57:33 29° 293° (WNW) 11:01:37 437.445
PHONESAT 2.4 01 Jul 10:54:49 10:55:49 11° 206° (SSW) 10:56:48 2401.200-2431.200
PCSat 01 Jul 10:56:57 11:02:25 88° 55° (NE) 11:07:51 145.827
Cosmos 2491 01 Jul 10:57:58 11:06:03 40° 70° (ENE) 11:14:05 435.465 / 435.565
ZACube-1 01 Jul 11:06:17 11:10:36 42° 289° (WNW) 11:14:55 437.345
BUGSAT 1 01 Jul 11:09:13 11:11:50 17° 63° (ENE) 11:14:26 437.445
Oscar 11 01 Jul 11:10:29 11:14:27 35° 291° (WNW) 11:18:25 145.826/435.025
COMPASS 1 01 Jul 11:10:44 11:12:43 13° 299° (WNW) 11:14:41 437.405
ANTELSAT 01 Jul 11:11:28 11:15:27 35° 263° (W) 11:19:33 437.575/2403.000
FUNcube-1 01 Jul 11:22:22 11:26:24 32° 292° (WNW) 11:30:26 145.935
AUBIESAT-1 01 Jul 11:26:59 11:30:28 30° 296° (WNW) 11:34:09 437.475
CUBEBUG 1 01 Jul 11:29:30 11:30:21 10° 88° (E) 11:31:11 437.445
UWE-3 01 Jul 11:35:16 11:38:17 18° 298° (WNW) 11:41:22 435.000/436.395/437.385
BEESAT 3 01 Jul 11:35:54 11:39:26 31° 243° (WSW) 11:42:56 437.485
O/OREOS (USA 219) 01 Jul 11:40:18 11:44:32 40° 59° (ENE) 11:48:47 437.305
NANOSAT C BR1 01 Jul 11:40:37 11:44:48 83° 77° (ENE) 11:49:02 145.865
VELOX 1 01 Jul 11:44:23 11:46:47 14° 90° (E) 11:49:12 145.980
QB50P1 01 Jul 11:45:27 11:49:38 84° 257° (WSW) 11:53:52 145.935-145.965
50 SAT 01 Jul 11:45:51 11:47:49 14° 91° (E) 11:49:45 437.505
POPSAT HIP 1 01 Jul 11:48:59 11:53:10 78° 257° (WSW) 11:57:24 437.405
AIST 2 01 Jul 11:49:56 11:52:56 19° 38° (NE) 11:55:54 435.215
HUMSAT D 01 Jul 11:52:36 11:56:49 53° 288° (WNW) 12:01:01 437.325/437.525
DELFI C3 01 Jul 11:53:44 11:56:57 24° 293° (WNW) 12:00:09 145.870
DUCHIFAT 1 01 Jul 11:59:45 12:03:53 65° 258° (WSW) 12:08:04 145.980
QB50P2 01 Jul 12:02:16 12:06:21 52° 260° (W) 12:10:30 145.880/145.840
Oscar 19 01 Jul 12:02:59 12:05:51 15° 57° (ENE) 12:08:42 437.125/150
JAS-2 01 Jul 12:04:30 12:11:35 49° 68° (ENE) 12:18:00 435.910
POLYITAN 1 01 Jul 12:04:55 12:08:59 50° 260° (W) 12:13:07 437.675
TIGRISAT 01 Jul 12:05:08 12:06:40 12° 272° (W) 12:08:14 435.000
SPROUT 01 Jul 12:05:39 12:06:25 10° 88° (E) 12:07:12 437.525
RS-15 01 Jul 12:08:33 12:19:58 78° 120° (ESE) 12:32:03 29.354- 29.394
UKube-1 01 Jul 12:08:33 12:11:12 16° 91° (E) 12:13:49 .
M-CUBED/EXP-1 PRIME 01 Jul 12:11:21 12:12:09 10° 305° (NW) 12:12:57 437.505
HO-68 01 Jul 12:12:30 12:14:16 11° 318° (NW) 12:16:02 435.675
BEESAT 2 01 Jul 12:20:21 12:23:22 21° 247° (WSW) 12:26:23 435.950
ISS 01 Jul 12:23:56 12:26:55 32° 13° (NNE) 12:29:54 145.825
AISAT 01 Jul 12:24:18 12:28:26 38° 98° (E) 12:32:32 437.250
ESTCUBE 1 01 Jul 12:32:50 12:37:22 73° 103° (ESE) 12:41:49 437.505/2401.250
DX 1 01 Jul 12:33:21 12:37:21 35° 98° (E) 12:41:18 434.975-435.025
YUBILEINY 01 Jul 12:40:34 12:49:04 61° 91° (E) 12:57:39 435.215
PCSat 01 Jul 12:42:14 12:45:02 14° 257° (WSW) 12:47:49 145.827
BUGSAT 1 01 Jul 12:43:01 12:46:53 46° 261° (W) 12:50:45 437.445
Gurwin Techsat 1B 01 Jul 12:44:25 12:47:42 17° 58° (ENE) 12:51:00 435.225
Cosmos 2491 01 Jul 12:54:48 13:03:05 51° 271° (W) 13:11:22 435.465 / 435.565
CUBEBUG 1 01 Jul 13:02:52 13:07:11 79° 285° (WNW) 13:11:31 437.445
TISAT 1 01 Jul 13:13:00 13:15:22 14° 91° (E) 13:17:42 437.305
50 SAT 01 Jul 13:18:12 13:21:45 44° 288° (WNW) 13:25:14 437.505
VELOX 1 01 Jul 13:19:19 13:23:40 60° 287° (WNW) 13:27:59 145.980
O/OREOS (USA 219) 01 Jul 13:20:12 13:23:43 23° 257° (WSW) 13:27:14 437.305
AIST 2 01 Jul 13:27:42 13:31:52 70° 236° (WSW) 13:35:59 435.215
SPROUT 01 Jul 13:38:37 13:42:55 79° 285° (WNW) 13:47:12 437.525
Oscar 19 01 Jul 13:39:20 13:44:29 85° 254° (WSW) 13:49:40 437.125/150
AO-7 01 Jul 13:41:43 13:47:39 22° 47° (NE) 13:53:35 29.400- 29.500
UKube-1 01 Jul 13:43:21 13:47:34 53° 288° (WNW) 13:51:45 .
Cosmos 2504 01 Jul 13:44:49 13:52:40 51° 88° (E) 14:01:01 435.465 / 435.565
JAS-2 01 Jul 13:49:53 13:56:42 37° 264° (W) 14:02:58 435.910
ISS 01 Jul 14:00:18 14:03:35 73° 212° (SSW) 14:06:50 145.825
AISAT 01 Jul 14:01:14 14:04:42 23° 295° (WNW) 14:08:11 437.250
ITAMSAT 1 01 Jul 14:09:27 14:14:03 33° 65° (ENE) 14:18:42 435.822/435.867
DX 1 01 Jul 14:09:51 14:13:22 25° 295° (WNW) 14:16:53 434.975-435.025
ESTCUBE 1 01 Jul 14:11:15 14:13:35 14° 300° (WNW) 14:15:54 437.505/2401.250
Gurwin Techsat 1B 01 Jul 14:21:41 14:27:00 80° 257° (WSW) 14:32:22 435.225
RS-15 01 Jul 14:22:39 14:33:38 44° 328° (NNW) 14:45:11 29.354- 29.394
YUBILEINY 01 Jul 14:38:42 14:46:23 34° 293° (WNW) 14:54:11 435.215
TISAT 1 01 Jul 14:47:13 14:51:21 55° 288° (WNW) 14:55:28 437.305
SWISSCUBE 01 Jul 15:09:38 15:14:20 51° 100° (E) 15:18:59 437.505
Oscar 19 01 Jul 15:23:15 15:24:35 11° 273° (W) 15:25:56 437.125/150
AO-7 01 Jul 15:30:52 15:39:12 80° 68° (ENE) 15:47:36 29.400- 29.500
SO-50 01 Jul 15:32:49 15:37:36 59° 121° (ESE) 15:42:24 436.795
BEESAT 01 Jul 15:34:28 15:39:18 81° 103° (ESE) 15:44:04 436.000
ITUPSAT 1 01 Jul 15:37:43 15:42:33 84° 103° (ESE) 15:47:21 437.325
Cosmos 2504 01 Jul 15:38:33 15:46:16 40° 291° (WNW) 15:54:27 435.465 / 435.565
ISS 01 Jul 15:38:34 15:39:30 11° 228° (SW) 15:40:26 145.825
MOZHAYETS 4 01 Jul 15:46:10 15:48:34 14° 89° (E) 15:50:56
ITAMSAT 1 01 Jul 15:48:41 15:53:27 36° 263° (W) 15:58:17 435.822/435.867
HORYU 2 01 Jul 15:57:18 16:00:37 21° 63° (ENE) 16:03:57 437.375
Gurwin Techsat 1B 01 Jul 16:06:40 16:07:48 11° 274° (W) 16:08:57 435.225
AIST 1 01 Jul 16:39:58 16:43:53 36° 92° (E) 16:47:50
RS-15 01 Jul 16:40:06 16:50:20 30° 2° (N) 17:00:48 29.354- 29.394
Cubesat XI-IV 01 Jul 16:43:10 16:45:28 13° 54° (NE) 16:47:46 437.490
GONETS M04 01 Jul 16:47:25 16:52:08 16° 74° (ENE) 16:56:49
SWISSCUBE 01 Jul 16:48:12 16:51:46 21° 298° (WNW) 16:55:19 437.505
NOAA 18 01 Jul 17:02:34 17:06:35 21° 59° (ENE) 17:10:37 137.9125
KKS-1 01 Jul 17:07:07 17:11:35 89° 284° (WNW) 17:16:03 437.445
BEESAT 01 Jul 17:13:53 17:16:27 14° 302° (WNW) 17:18:59 436.000
CUTE-I 01 Jul 17:14:13 17:18:20 23° 61° (ENE) 17:22:26 437.470
SO-50 01 Jul 17:14:19 17:18:26 26° 321° (NW) 17:22:32 436.795
ITUPSAT 1 01 Jul 17:17:18 17:19:43 14° 302° (WNW) 17:22:08 437.325
MOZHAYETS 4 01 Jul 17:21:35 17:26:13 68° 286° (WNW) 17:30:48
CUBESAT XI-V 01 Jul 17:22:16 17:25:14 17° 90° (E) 17:28:10 437.345
CUSAT 1 01 Jul 17:24:48 17:26:21 12° 61° (ENE) 17:27:47 437.405
AO-7 01 Jul 17:26:21 17:32:49 25° 268° (W) 17:39:21 29.400- 29.500
STARS 01 Jul 17:30:06 17:34:33 83° 104° (ESE) 17:38:58 437.465
NOAA 15 01 Jul 17:30:27 17:35:21 40° 67° (ENE) 17:40:15 137.62
HORYU 2 01 Jul 17:32:39 17:36:53 44° 261° (W) 17:41:11 437.375
BRITE-PL 01 Jul 17:36:06 17:40:35 38° 70° (ENE) 17:44:47 437.365/2234.400
GOMX 1 01 Jul 17:53:20 17:56:58 25° 67° (ENE) 18:00:28 467.674
Cosmos 2499 01 Jul 18:11:32 18:19:08 39° 85° (E) 18:27:03 435.465 / 435.565
DANDE 01 Jul 18:17:22 18:21:17 24° 64° (ENE) 18:24:26 436.750
AIST 1 01 Jul 18:18:16 18:21:36 22° 289° (WNW) 18:24:57
Cubesat XI-IV 01 Jul 18:19:18 18:24:38 76° 73° (ENE) 18:30:02 437.490
LilacSat-2 01 Jul 18:34:03 18:37:50 80° 258° (WSW) 18:41:40 437.200
DOVE 4 01 Jul 18:36:19 18:40:01 30° 69° (ENE) 18:43:40 437.250
GONETS M04 01 Jul 18:38:43 18:47:23 77° 95° (E) 18:56:05
NOAA 18 01 Jul 18:41:19 18:46:45 65° 257° (WSW) 18:52:14 137.9125
KKS-1 01 Jul 18:46:03 18:47:27 11° 303° (WNW) 18:48:52 437.445
CUTE-I 01 Jul 18:52:43 18:57:58 57° 259° (W) 19:03:17 437.470
RS-15 01 Jul 18:55:08 19:06:52 47° 35° (NE) 19:18:37 29.354- 29.394
CUBESAT XI-V 01 Jul 18:58:27 19:02:59 56° 288° (WNW) 19:07:28 437.345
CANX-2 01 Jul 19:03:33 19:06:35 19° 64° (ENE) 19:09:38 2200.000
HO-68 01 Jul 19:04:50 19:11:15 37° 61° (ENE) 19:17:41 435.675
CUSAT 1 01 Jul 19:05:45 19:08:46 28° 269° (W) 19:11:18 437.405
CINEMA 3 01 Jul 19:07:39 19:10:41 20° 64° (ENE) 19:13:45 145.822/145.860
STARS 01 Jul 19:08:28 19:10:16 12° 301° (WNW) 19:12:04 437.465
NOAA 15 01 Jul 19:10:38 19:15:13 29° 265° (W) 19:19:49 137.62
BRITE-PL 01 Jul 19:15:10 19:19:10 25° 265° (W) 19:22:57 437.365/2234.400
SEEDS 01 Jul 19:20:37 19:23:33 18° 64° (ENE) 19:26:29 437.485
CUTE 1.7 + AOD 2 01 Jul 19:22:17 19:25:47 25° 67° (ENE) 19:29:20 437.475
GOMX 1 01 Jul 19:30:55 19:34:59 33° 263° (W) 19:38:53 467.674
AAUSAT CUBESAT 2 01 Jul 19:49:32 19:52:41 21° 65° (ENE) 19:55:49 437.432
M-CUBED/EXP-1 PRIME 01 Jul 19:50:54 19:52:38 14° 57° (ENE) 19:54:23 437.505
DANDE 01 Jul 20:00:15 20:04:06 26° 274° (W) 20:07:10 436.750
Cubesat XI-IV 01 Jul 20:02:11 20:05:18 16° 271° (W) 20:08:27 437.490
Cosmos 2499 01 Jul 20:03:43 20:11:58 53° 286° (WNW) 20:20:39 435.465 / 435.565
STRAND 1 01 Jul 20:04:17 20:09:18 48° 100° (E) 20:14:15 437.568
DOVE 4 01 Jul 20:14:16 20:17:46 25° 265° (W) 20:21:13 437.250
CUBEBUG 2 01 Jul 20:17:15 20:21:01 33° 68° (ENE) 20:24:55 437.445
COMPASS 1 01 Jul 20:25:55 20:30:04 60° 73° (ENE) 20:34:15 437.405
ZACube-1 01 Jul 20:28:49 20:32:04 22° 64° (ENE) 20:35:23 437.345
PRISM 01 Jul 20:30:00 20:31:33 12° 90° (E) 20:33:05 437.425
Oscar 11 01 Jul 20:31:34 20:35:06 25° 66° (ENE) 20:38:38 145.826/435.025
CANX-2 01 Jul 20:37:59 20:42:06 46° 261° (W) 20:46:17 2200.000
GONETS M04 01 Jul 20:38:11 20:45:10 26° 297° (WNW) 20:52:13
AUBIESAT-1 01 Jul 20:41:13 20:44:21 42° 66° (ENE) 20:47:35 437.475
CINEMA 3 01 Jul 20:43:42 20:47:35 39° 262° (W) 20:51:33 145.822/145.860
FUNcube-1 01 Jul 20:43:56 20:47:34 28° 67° (ENE) 20:51:18 145.935
HO-68 01 Jul 20:51:53 20:58:46 50° 260° (W) 21:05:45 435.675
SEEDS 01 Jul 20:54:47 20:58:54 47° 261° (W) 21:03:03 437.485
UWE-3 01 Jul 20:56:44 21:00:53 59° 73° (ENE) 21:05:11 435.000/436.395/437.385
CUTE 1.7 + AOD 2 01 Jul 20:57:38 21:01:30 33° 264° (W) 21:05:25 437.475
AO-85 01 Jul 21:03:42 21:08:59 56° 120° (ESE) 21:14:07 145.980
DELFI C3 01 Jul 21:06:44 21:10:03 25° 67° (ENE) 21:13:22 145.870
RS-15 01 Jul 21:08:05 21:20:19 73° 242° (WSW) 21:32:27 29.354- 29.394
HUMSAT D 01 Jul 21:12:02 21:14:31 15° 62° (ENE) 21:17:01 437.325/437.525
M-CUBED/EXP-1 PRIME 01 Jul 21:23:50 21:26:54 39° 255° (WSW) 21:30:04 437.505
AAUSAT CUBESAT 2 01 Jul 21:23:58 21:27:54 40° 262° (W) 21:31:54 437.432
STRAND 1 01 Jul 21:44:03 21:48:11 25° 297° (WNW) 21:52:18 437.568
CUBEBUG 2 01 Jul 21:54:18 21:57:43 24° 267° (W) 22:01:14 437.445
ESTCUBE 1 01 Jul 22:01:10 22:02:34 11° 58° (ENE) 22:03:58 437.505/2401.250
PRISM 01 Jul 22:03:14 22:07:17 64° 287° (WNW) 22:11:18 437.425
COMPASS 1 01 Jul 22:03:54 22:06:01 13° 271° (W) 22:08:08 437.405
Cosmos 2499 01 Jul 22:04:03 22:07:35 13° 311° (NW) 22:11:10 435.465 / 435.565
ZACube-1 01 Jul 22:04:07 22:08:06 39° 263° (W) 22:12:13 437.345
Oscar 11 01 Jul 22:07:06 22:11:04 35° 264° (W) 22:15:05 145.826/435.025
TIGRISAT 01 Jul 22:15:41 22:18:12 14° 89° (E) 22:20:41 435.000
AUBIESAT-1 01 Jul 22:17:51 22:19:09 12° 264° (W) 22:20:28 437.475
FUNcube-1 01 Jul 22:20:04 22:23:45 29° 265° (W) 22:27:34 145.935
UNISAT 6 01 Jul 22:21:35 22:24:41 17° 91° (E) 22:27:47 437.425
SO-50 01 Jul 22:22:37 22:26:01 19° 34° (NE) 22:29:20 436.795
CUBEBUG 1 01 Jul 22:27:10 22:29:12 13° 60° (ENE) 22:31:15 437.445
50 SAT 01 Jul 22:27:42 22:28:08 10° 60° (ENE) 22:28:34 437.505
UWE-3 01 Jul 22:35:37 22:37:48 14° 271° (W) 22:40:00 435.000/436.395/437.385
DELFI C3 01 Jul 22:41:15 22:44:48 29° 264° (W) 22:48:23 145.870
VELOX 1 01 Jul 22:43:43 22:46:43 18° 62° (ENE) 22:49:42 145.980
AO-85 01 Jul 22:45:04 22:49:47 30° 318° (NW) 22:54:18 145.980
HUMSAT D 01 Jul 22:45:32 22:49:40 58° 260° (W) 22:53:53 437.325/437.525
YUBILEINY 01 Jul 22:48:03 22:55:55 34° 67° (ENE) 23:03:44 435.215
ANTELSAT 01 Jul 23:00:17 23:04:42 40° 98° (E) 23:09:08 437.575/2403.000
SPROUT 01 Jul 23:01:17 23:02:51 12° 59° (ENE) 23:04:26 437.525
UKube-1 01 Jul 23:05:10 23:08:12 19° 63° (ENE) 23:11:14 .
RS-15 01 Jul 23:22:58 23:30:32 19° 264° (W) 23:38:05 29.354- 29.394
AISAT 01 Jul 23:23:34 23:27:45 45° 70° (ENE) 23:31:56 437.250
NANOSAT C BR1 01 Jul 23:25:00 23:26:25 11° 89° (E) 23:27:50 145.865
QB50P1 01 Jul 23:29:27 23:31:39 14° 90° (E) 23:33:51 145.935-145.965
DX 1 01 Jul 23:30:45 23:34:48 40° 69° (ENE) 23:38:52 434.975-435.025
POPSAT HIP 1 01 Jul 23:32:50 23:35:17 15° 91° (E) 23:37:42 437.405
ESTCUBE 1 01 Jul 23:34:06 23:38:38 86° 78° (ENE) 23:43:13 437.505/2401.250
Cosmos 2504 01 Jul 23:35:07 23:41:52 23° 60° (ENE) 23:48:25 435.465 / 435.565
DUCHIFAT 1 01 Jul 23:42:35 23:45:23 17° 92° (E) 23:48:11 145.980
QB50P2 01 Jul 23:45:26 23:48:44 21° 93° (E) 23:52:02 145.880/145.840
POLYITAN 1 01 Jul 23:48:02 23:51:23 22° 94° (E) 23:54:44 437.675
TIGRISAT 01 Jul 23:50:41 23:55:20 69° 286° (WNW) 00:00:00 435.000
UNISAT 6 01 Jul 23:57:08 00:01:43 57° 288° (WNW) 00:06:19 437.425
50 SAT 01 Jul 23:57:31 00:01:14 74° 258° (WSW) 00:04:59 437.505
CUBEBUG 1 02 Jul 00:00:35 00:04:55 74° 257° (WSW) 00:09:17 437.445
Cosmos 2491 02 Jul 00:02:05 00:10:05 42° 86° (E) 00:18:03 435.465 / 435.565
SO-50 02 Jul 00:02:27 00:07:10 88° 237° (WSW) 00:11:42 436.795
TISAT 1 02 Jul 00:07:05 00:09:32 15° 62° (ENE) 00:11:59 437.305
VELOX 1 02 Jul 00:18:31 00:22:48 52° 260° (W) 00:27:07 145.980
BUGSAT 1 02 Jul 00:22:55 00:26:02 20° 94° (E) 00:29:09 437.445
AO-85 02 Jul 00:31:03 00:31:52 10° 341° (NNW) 00:32:41 145.980
SPROUT 02 Jul 00:33:56 00:38:11 80° 257° (WSW) 00:42:28 437.525
ANTELSAT 02 Jul 00:37:24 00:41:12 25° 295° (WNW) 00:45:01 437.575/2403.000
UKube-1 02 Jul 00:39:45 00:43:55 47° 260° (W) 00:48:06 .
SWISSCUBE 02 Jul 00:44:33 00:45:47 11° 55° (NE) 00:47:01 437.505
YUBILEINY 02 Jul 00:44:36 00:53:14 61° 269° (W) 01:01:51 435.215
JAS-2 02 Jul 00:57:34 01:02:14 27° 93° (E) 01:06:38 435.910
NANOSAT C BR1 02 Jul 00:58:23 01:02:38 72° 285° (WNW) 01:06:52 145.865
AISAT 02 Jul 01:01:17 01:04:26 19° 267° (W) 01:07:37 437.250
QB50P1 02 Jul 01:03:37 01:07:49 60° 287° (WNW) 01:12:01 145.935-145.965
POPSAT HIP 1 02 Jul 01:07:13 01:11:24 56° 288° (WNW) 01:15:35 437.405
BEESAT 02 Jul 01:07:27 01:10:22 16° 59° (ENE) 01:13:16 436.000
DX 1 02 Jul 01:07:52 01:11:09 21° 266° (W) 01:14:27 434.975-435.025
ITUPSAT 1 02 Jul 01:10:49 01:13:53 17° 60° (ENE) 01:16:58 437.325
ESTCUBE 1 02 Jul 01:15:15 01:16:04 10° 273° (W) 01:16:53 437.505/2401.250
DUCHIFAT 1 02 Jul 01:17:15 01:21:21 48° 289° (WNW) 01:25:26 145.980
QB50P2 02 Jul 01:20:42 01:24:40 38° 290° (WNW) 01:28:38 145.880/145.840
POLYITAN 1 02 Jul 01:23:21 01:27:18 37° 291° (WNW) 01:31:16 437.675
Cosmos 2504 02 Jul 01:27:37 01:36:34 89° 261° (W) 01:45:04 435.465 / 435.565
BEESAT 3 02 Jul 01:28:37 01:31:43 23° 114° (ESE) 01:34:50 437.485
PCSat 02 Jul 01:40:33 01:45:47 52° 115° (ESE) 01:51:04 145.827
TISAT 1 02 Jul 01:40:40 01:44:45 56° 259° (W) 01:48:52 437.305
SO-50 02 Jul 01:45:26 01:46:50 11° 253° (WSW) 01:48:13 436.795
Oscar 19 02 Jul 01:49:03 01:53:28 28° 95° (E) 01:57:52 437.125/150
O/OREOS (USA 219) 02 Jul 01:55:05 01:58:59 30° 105° (ESE) 02:02:53 437.305
BUGSAT 1 02 Jul 01:57:44 02:01:32 37° 290° (WNW) 02:05:21 437.445
Cosmos 2491 02 Jul 01:58:25 02:06:48 48° 287° (WNW) 02:15:12 435.465 / 435.565
BEESAT 2 02 Jul 02:13:20 02:16:59 36° 118° (ESE) 02:20:40 435.950
SWISSCUBE 02 Jul 02:17:56 02:22:44 75° 74° (ENE) 02:27:33 437.505
KKS-1 02 Jul 02:33:16 02:35:27 14° 59° (ENE) 02:37:36 437.445
Gurwin Techsat 1B 02 Jul 02:35:54 02:40:45 34° 96° (E) 02:45:35 435.225
JAS-2 02 Jul 02:42:21 02:47:35 41° 293° (WNW) 02:52:27 435.910
BEESAT 02 Jul 02:42:50 02:47:36 71° 258° (WSW) 02:52:24 436.000
YUBILEINY 02 Jul 02:45:24 02:48:02 12° 290° (WNW) 02:50:40 435.215
AIST 1 02 Jul 02:46:05 02:47:46 12° 65° (ENE) 02:49:27
ITUPSAT 1 02 Jul 02:46:26 02:51:12 67° 258° (WSW) 02:56:01 437.325
MOZHAYETS 4 02 Jul 02:49:57 02:53:05 18° 62° (ENE) 02:56:16
STARS 02 Jul 02:55:42 02:57:14 12° 58° (ENE) 02:58:47 437.465
BEESAT 3 02 Jul 03:05:30 03:09:12 38° 312° (NW) 03:12:56 437.485
Cosmos 2504 02 Jul 03:22:42 03:28:39 21° 284° (WNW) 03:34:27 435.465 / 435.565
PCSat 02 Jul 03:24:43 03:29:27 30° 315° (NW) 03:34:13 145.827
Oscar 19 02 Jul 03:28:08 03:32:53 39° 292° (WNW) 03:37:37 437.125/150
AIST 2 02 Jul 03:29:04 03:31:10 14° 110° (ESE) 03:33:17 435.215
AO-7 02 Jul 03:31:09 03:37:22 22° 91° (E) 03:43:30 29.400- 29.500
O/OREOS (USA 219) 02 Jul 03:34:19 03:38:20 31° 303° (WNW) 03:42:21 437.305
BEESAT 2 02 Jul 03:51:29 03:54:54 27° 317° (NW) 03:58:20 435.950
AO-85 02 Jul 03:54:22 03:57:26 17° 31° (NNE) 04:00:20 145.980
ITAMSAT 1 02 Jul 03:58:38 04:03:53 68° 103° (ESE) 04:09:04 435.822/435.867
SWISSCUBE 02 Jul 03:58:45 04:01:04 13° 271° (W) 04:03:24 437.505
Cosmos 2499 02 Jul 04:00:46 04:06:07 17° 54° (NE) 04:11:16 435.465 / 435.565
Cosmos 2491 02 Jul 04:04:53 04:06:22 10° 313° (NW) 04:07:52 435.465 / 435.565
KKS-1 02 Jul 04:07:01 04:11:26 75° 258° (WSW) 04:15:53 437.445
Gurwin Techsat 1B 02 Jul 04:15:53 04:20:41 35° 294° (WNW) 04:25:27 435.225
AIST 1 02 Jul 04:21:39 04:25:53 69° 264° (W) 04:30:07
MOZHAYETS 4 02 Jul 04:25:17 04:29:50 57° 260° (W) 04:34:26
CUBESAT XI-V 02 Jul 04:27:27 04:31:04 22° 64° (ENE) 04:34:39 437.345
STARS 02 Jul 04:28:34 04:32:56 86° 256° (WSW) 04:37:20 437.465
GONETS M04 02 Jul 04:46:20 04:54:34 43° 71° (ENE) 05:02:46
AIST 2 02 Jul 05:05:02 05:09:08 68° 308° (NW) 05:13:16 435.215
HORYU 2 02 Jul 05:21:23 05:25:18 29° 96° (E) 05:29:12 437.375
AO-7 02 Jul 05:22:39 05:31:06 86° 290° (WNW) 05:39:28 29.400- 29.500
AO-85 02 Jul 05:34:07 05:38:44 81° 53° (NE) 05:42:56 145.980
ITAMSAT 1 02 Jul 05:39:14 05:42:50 19° 301° (WNW) 05:46:24 435.822/435.867
NOAA 15 02 Jul 05:45:25 05:47:16 12° 87° (E) 05:49:07 137.62
STRAND 1 02 Jul 05:46:27 05:48:55 14° 56° (NE) 05:51:24 437.568
Cosmos 2499 02 Jul 05:52:20 06:01:09 70° 78° (ENE) 06:09:20 435.465 / 435.565
CUBESAT XI-V 02 Jul 06:03:39 06:08:09 46° 261° (W) 06:12:41 437.345
CUSAT 1 02 Jul 06:25:55 06:31:57 28° 91° (E) 06:37:05 437.405
Cubesat XI-IV 02 Jul 06:34:52 06:39:19 26° 94° (E) 06:43:44 437.490
PHONESAT 2.4 02 Jul 06:37:03 06:39:38 25° 167° (SSE) 06:42:14 2401.200-2431.200
GONETS M04 02 Jul 06:43:17 06:51:27 47° 272° (W) 06:59:40
AIST 2 02 Jul 06:46:23 06:48:24 13° 328° (NNW) 06:50:26 435.215
HORYU 2 02 Jul 06:57:51 07:01:51 32° 293° (WNW) 07:05:49 437.375
NOAA 18 02 Jul 07:01:05 07:06:25 45° 99° (E) 07:11:43 137.9125
CUTE-I 02 Jul 07:07:26 07:12:40 49° 100° (E) 07:17:51 437.470
BRITE-PL 02 Jul 07:16:18 07:20:29 86° 103° (ESE) 07:24:43 437.365/2234.400
AO-7 02 Jul 07:16:34 07:22:47 24° 312° (NW) 07:28:59 29.400- 29.500
AO-85 02 Jul 07:16:48 07:18:22 12° 254° (WSW) 07:19:54 145.980
PRISM 02 Jul 07:21:38 07:23:38 13° 60° (ENE) 07:25:39 437.425
STRAND 1 02 Jul 07:22:10 07:27:19 85° 75° (ENE) 07:32:31 437.568
NOAA 15 02 Jul 07:22:31 07:27:49 87° 105° (ESE) 07:33:03 137.62
DANDE 02 Jul 07:23:29 07:31:10 43° 92° (E) 07:38:00 436.750
GOMX 1 02 Jul 07:29:15 07:33:24 53° 100° (E) 07:37:46 467.674
LilacSat-2 02 Jul 07:39:23 07:43:16 70° 284° (WNW) 07:47:08 437.200
Cosmos 2499 02 Jul 07:46:30 07:53:26 28° 280° (W) 08:00:04 435.465 / 435.565
CUSAT 1 02 Jul 08:06:34 08:13:50 58° 283° (WNW) 08:19:43 437.405
DOVE 4 02 Jul 08:09:02 08:13:24 66° 101° (E) 08:18:01 437.250
PHONESAT 2.4 02 Jul 08:13:04 08:15:51 31° 184° (S) 08:18:37 2401.200-2431.200
Cubesat XI-IV 02 Jul 08:14:26 08:19:36 47° 292° (WNW) 08:24:43 437.490
ISS 02 Jul 08:17:03 08:20:18 67° 146° (SSE) 08:23:33 145.825
HO-68 02 Jul 08:17:10 08:23:23 30° 94° (E) 08:29:32 435.675
CANX-2 02 Jul 08:21:05 08:24:41 25° 94° (E) 08:28:14 2200.000
CINEMA 3 02 Jul 08:35:09 08:39:28 39° 97° (E) 08:43:58 145.822/145.860
SEEDS 02 Jul 08:36:52 08:40:19 24° 94° (E) 08:43:43 437.485
CUTE 1.7 + AOD 2 02 Jul 08:40:02 08:43:59 35° 96° (E) 08:47:54 437.475
NOAA 18 02 Jul 08:42:09 08:46:52 30° 297° (WNW) 08:51:36 137.9125
PCSat 02 Jul 08:43:43 08:47:06 16° 33° (NNE) 08:50:29 145.827
UWE-3 02 Jul 08:46:04 08:47:40 12° 87° (E) 08:49:15 435.000/436.395/437.385
